Location: Fond Mahaut
(18.0707°N, 63.0465°W)
Time: 12:54:20
(UTC+00:00)

Cosmos 1939 Rocket - Pass Details

Date: 08 December 2019
Orbit: 533 x 584 km, 97.4° (Epoch: 28 January)

Event Time Altitude Azimuth Distance (km) Brightness Sun altitude
Rises 22:44:33 0° 148° (SSE) 2,781 6.3 -15.9°
Reaches altitude 10° 22:46:54 10° 137° (SE) 1,878 5.3 -16.4°
Enters shadow 22:48:44 21° 118° (ESE) 1,292 4.3 -16.8°
